Location: Saint-Palais-sur-Mer
(45.6429°N, 1.0859°W)
Time: 08:16:42
(UTC+01:00)

ISS - Visible Passes

Search period start: 17 February 2020 00:00
Search period end: 27 February 2020 00:00
Orbit: 416 x 423 km, 51.6° (Epoch: 17 February)

Date Brightness Start Highest point End Pass type
(mag) Time Alt. Az. Time Alt. Az. Time Alt. Az.
19 Feb -0.6 07:28:41 10° SSE 07:30:33 14° SE 07:32:26 10° E visible
22 Feb -1.4 06:41:40 10° S 06:44:20 22° SE 06:47:02 10° E visible
23 Feb -0.9 05:55:03 10° SSE 05:56:54 14° SE 05:58:46 10° E visible
24 Feb -3.2 06:42:47 13° SW 06:45:39 55° SE 06:48:58 10° ENE visible
25 Feb -2.5 05:57:26 31° SSE 05:58:05 34° SE 06:01:12 10° ENE visible
26 Feb -1.0 05:11:56 17° ESE 05:11:56 17° ESE 05:13:15 10° E visible
26 Feb -3.7 06:44:54 20° WSW 06:47:06 66° NNW 06:50:29 10° ENE visible
